Location: DaltonSkyGazer Observatory
(42.4858°N, 73.1565°W)
Time: 13:17:50
(UTC-04:00)

Daily predictions for brighter satellites

Satellite Brightness Start Highest point End
(mag) Time Altitude Azimuth Time Altitude Azimuth Time Altitude Azimuth
MSX 4.2 19:01:53 10° S 19:07:36 74° WSW 19:13:23 10° NNW
ATLAS 3B R/B 3.9 19:02:40 10° WSW 19:10:01 48° NW 19:17:07 10° NNE
Meteor 1-29 4.5 19:08:33 10° NE 19:10:58 17° E 19:13:22 10° SE
Cosmos 292 Rocket 3.9 19:06:11 10° SSW 19:10:59 86° WNW 19:15:51 10° NNE
Cosmos 2346 Rocket 4.4 19:06:27 10° N 19:12:33 80° E 19:18:36 10° S
Cosmos 1953 3.6 19:12:21 10° SE 19:15:20 20° E 19:18:18 10° NE
SL-19 R/B 4.4 19:12:38 10° SSE 19:18:15 88° WSW 19:24:12 10° NNW
SeaSat 1 4.1 19:18:21 10° ENE 19:20:29 13° ESE 19:22:35 10° SE
Cosmos 1452 Rocket 4.1 19:15:49 10° N 19:20:41 37° ENE 19:25:31 10° SE
Helios 1A 3.6 19:17:31 10° SE 19:21:19 35° ENE 19:25:09 10° N
Cosmos 2219 Rocket 3.7 19:16:14 10° SW 19:21:29 40° WNW 19:26:48 10° N
METEOR-M 4.3 19:18:04 10° SSE 19:23:15 54° ENE 19:28:29 10° N
COSMO-SKYMED 1 3.4 19:21:31 10° N 19:25:47 57° WNW 19:30:03 10° SSW
Cosmos 2278 Rocket 3.3 19:20:36 10° NW 19:26:02 49° WSW 19:31:26 10° S
Cosmos 1805 4.2 19:23:16 10° SSE 19:26:34 26° E 19:29:54 10° NNE
NOSS 3-2 (A) 3.5 19:21:02 10° SSW 19:26:59 62° ESE 19:33:28 10° NE
Meteor 1-22 Rocket 4.0 19:21:45 10° S 19:27:05 75° E 19:32:23 10° NNE
H-2A R/B 4.3 19:25:54 11° ESE 19:28:27 19° ENE 19:31:13 10° NNE
Cosmos 1378 3.0 19:25:01 10° N 19:28:45 69° E 19:32:27 10° SSE
Cosmos 1544 4.5 19:27:41 10° SE 19:30:22 19° E 19:33:03 10° NE
Cosmos 2297 3.7 19:25:16 10° NNW 19:30:59 89° WSW 19:36:38 10° SSE
ALOS 3.1 19:27:11 10° SE 19:31:15 30° ENE 19:35:19 10° N
Meteor 1-28 Rocket 3.1 19:27:39 10° NNE 19:31:24 77° ESE 19:35:06 10° S
OAO 3 Rocket 4.3 19:27:47 10° SW 19:31:58 31° S 19:35:32 13° ESE
FENGYUN 3A 4.3 19:27:18 10° SE 19:32:03 34° ENE 19:36:51 10° N
USA 238 DEB 4.4 19:25:46 10° SW 19:32:44 61° NW 19:39:43 10° NNE
ATLAS CENTAUR R/B 3.6 19:27:56 10° SSW 19:32:46 65° ESE 19:48:05 10° NE
USA 238 4.4 19:25:51 10° SW 19:32:49 61° NW 19:39:49 10° NNE
CZ-4B DEB 4.1 19:33:12 14° ESE 19:35:08 23° ENE 19:37:48 10° NNE
CZ-4C R/B 3.2 19:30:30 10° WSW 19:35:42 49° NW 19:41:37 10° NNE
Meteor 1-24 Rocket 3.9 19:30:49 10° NNW 19:36:31 79° W 19:41:57 10° S
Cosmos 2369 Rocket 3.6 19:40:31 10° N 19:44:42 21° NE 19:47:05 16° E
Cosmos 2034 Rocket 4.1 19:38:44 10° SSE 19:44:49 57° E 19:51:01 10° NNE
Cosmos 1766 Rocket 3.5 19:42:15 10° N 19:46:37 64° E 19:50:54 10° SSE
SJ-6B 3.7 19:43:12 10° S 19:47:04 54° W 19:51:04 10° NNW
Cosmos 1464 Rocket 3.9 19:41:07 10° S 19:47:21 80° E 19:53:34 10° N
Timation 1 Rocket 4.3 19:42:01 10° NNW 19:48:01 90° NE 19:54:00 10° SSE
Cosmos 1470 4.4 19:49:12 16° ENE 19:49:12 16° ENE 19:50:47 10° NE
Cosmos 1603 4.1 19:43:43 10° S 19:48:59 39° ESE 19:54:16 10° NE
FREGAT/IRIS 3.4 19:45:57 10° S 19:48:59 55° W 19:52:03 10° NNW
Cosmos 1943 Rocket 4.1 19:50:07 10° NNE 19:52:08 12° NE 19:53:43 11° ENE
Cosmos 1758 3.3 19:52:37 10° S 19:56:39 64° E 20:00:44 10° NNE
Cosmos 1269 Rocket 4.5 19:54:37 10° SSE 19:59:26 37° ESE 20:04:17 10° NE
Cosmos 2333 Rocket 4.4 19:56:03 10° WSW 20:00:55 28° NW 20:05:49 10° N
Spot 2 Rocket 3.7 19:57:05 10° S 20:02:07 75° WSW 20:07:11 10° NNW
Cosmos 1076 Rocket 3.9 19:59:13 10° NNW 20:03:31 67° W 20:07:48 10° S
FengYun 1-2 T 4.2 19:58:43 10° SSE 20:04:15 86° ENE 20:09:46 10° NNW
NOSS 3-2 (C) 3.4 19:58:30 10° SSW 20:04:35 88° SE 20:11:16 10° NE
CENTAUR R/B 3.3 20:00:00 10° SSE 20:04:46 25° ESE 20:05:41 24° E
ASTEX 1 3.6 20:00:22 10° NNE 20:05:07 47° E 20:09:49 10° SSE
Helios 1B rocket 2.5 20:01:28 10° N 20:05:35 79° WNW 20:09:41 10° SSW
Cosmos-2242 2.9 20:04:39 10° S 20:08:59 78° E 20:13:24 10° N
SL-8 R/B 4.4 20:06:46 10° SSW 20:11:00 32° SE 20:11:40 31° ESE
Envisat 4.2 20:13:04 23° ENE 20:13:11 23° ENE 20:17:06 10° NNE
In-Cosmos 22 4.5 20:08:29 10° NNW 20:14:16 74° W 20:19:59 10° S
Cosmos 1674 2.9 20:12:55 10° N 20:16:41 46° E 20:16:58 45° E
Meteor 1-21 Rocket 4.1 20:14:00 10° N 20:19:36 88° W 20:25:08 10° S
Cosmos 1842 Rocket 3.7 20:18:06 32° SE 20:19:39 47° E 20:23:49 10° NNE
Cosmos 1500 Rocket 3.7 20:16:31 10° N 20:20:51 52° E 20:21:56 42° SE
Cosmos 1408 Rocket 4.5 20:17:06 10° NNW 20:21:19 48° W 20:25:28 10° SSW
Cosmos 2151 4.2 20:21:28 10° NNE 20:24:01 26° NE 20:24:01 26° NE
Cosmos 1346 3.2 20:25:17 10° NNW 20:28:07 68° WNW 20:28:07 68° WNW
ATLAS CENTAUR R/B 4.3 20:27:15 10° W 20:28:54 12° WSW 20:30:29 10° SW
Resurs 01 Rocket 3.3 20:28:26 10° SSW 20:32:29 34° W 20:36:34 10° NNW
ATLAS 5 CENTAUR R/B 2.2 20:29:44 10° SW 20:34:30 63° NW 20:39:42 10° NNE
USA 215 3.5 20:31:36 10° NE 20:38:05 67° NW 20:44:33 10° WSW
CZ-2D R/B 3.9 20:43:01 31° SSW 20:44:34 53° W 20:48:24 10° NNW
SL-16 R/B 4.0 20:41:00 10° WSW 20:46:00 31° NW 20:51:01 10° N
Cosmos 1743 Rocket 4.3 20:44:34 10° NNW 20:48:55 52° W 20:51:26 23° SSW
Cosmos 1953 4.4 20:48:08 10° SW 20:51:36 28° WNW 20:55:04 10° NNW
ERS-1 Rocket 3.1 20:54:53 58° NE 20:54:53 58° NE 20:59:27 10° N
Cosmos 1655 Rocket 4.0 20:50:46 10° N 20:56:54 56° E 20:57:04 56° E
SeaSat 1 2.4 20:53:34 10° NNE 20:58:33 84° WNW 21:03:29 10° SSW
GP-B 3.2 20:57:10 10° N 21:01:21 73° NW 21:01:21 73° NW
BREEZE-M DEB (TANK) 3.2 20:51:16 10° WNW 21:01:55 69° N 21:02:28 63° NE
H-2A R/B 4.4 21:01:10 26° SW 21:02:31 33° W 21:06:05 10° NNW
Cosmos 1092 Rocket 4.2 20:56:38 10° NNW 21:02:49 69° W 21:06:37 24° S
Cosmos 2142 Rocket 4.4 21:02:43 20° S 21:07:24 89° E 21:13:50 10° N
Cosmos 839 Rocket 4.1 20:59:49 10° NNW 21:07:38 77° ENE 21:08:43 64° ESE
ALOS 4.1 21:04:37 10° SSW 21:08:38 28° W 21:12:41 10° NW
Cosmos 1634 Rocket 4.1 21:11:41 10° SSW 21:17:55 72° W 21:24:09 10° N
Cosmos 2026 Rocket 3.8 21:12:22 10° N 21:18:30 90° E 21:18:46 83° S
H-2A R/B 4.2 21:31:47 21° N 21:31:47 21° N 21:33:18 10° N
Cosmos 2369 Rocket 2.4 21:23:38 10° NNW 21:28:54 67° W 21:28:54 67° W
Cosmos 2263 4.5 21:25:53 10° NNW 21:30:47 65° NNW 21:30:47 65° NNW
Cosmos 1943 Rocket 3.1 21:31:29 10° NNW 21:35:15 41° N 21:35:15 41° N
H-2A R/B 4.4 21:53:25 13° NNE 21:53:25 13° NNE 21:54:07 10° N
Envisat 4.3 21:53:17 36° WNW 21:53:17 36° WNW 21:56:46 10° NNW
CENTAUR R/B 3.2 21:48:41 10° SW 21:59:44 19° NNE 22:01:38 10° NNE
